Find Fastrac-OSCAR-69

NORAD ID: 37227 Int'l Des: 2010-062 Owner: AFSMC Country: US operational
LEOCIRCULAR

Live Position

Loading 3D Globe...

About Fastrac-OSCAR-69

Description loading...

Upcoming Passes

Passes for default location (London). Set your location on the main map for personalized predictions.

Altitude History

Loading altitude history...

Two-Line Element Set

1 37227U 10062F 26107.13508526 .00000606 00000-0 77580-4 0 9999
2 37227 71.9651 272.3719 0016397 233.0312 126.9354 14.85148282356808
Epoch: Apr 17, 2026 • Age: 14 hours

Current Status

Altitude 626.8 km
Velocity 7.54 km/s
Sub-Earth Point -38.17°S, 146.28°E
Launch Date Nov 20, 2010
Age 15.4 years
Type other

Technical Details

Classification Payload
Mass 27.00 kg
Dry Mass 27.00 kg
Total Mass 27.00 kg
Length 0.20 m
Diameter 0.50 m
Span 0.50 m
Shape Hex Cyl
Manufacturer UT
Bus Type FASTRAC
Phase Status In Orbit
Owner/State AFSMC/US

Most Searched